STARLINK-4267 (52864 NORAD) Tracking and Keplerian Element Data

This shows tracking and keplerian element data for the satellite.

Feedback or suggestion? Click here.




ElementValue
Catalog52864
NameSTARLINK-4267
Epoch Orbit1628
Epoch Day270.25001157
Epoch Year2022
RAAN277.9491
Inclination53.2158
Eccentricity0.0001967
Argument of Perigee44.4748
Mean Anonmoly328.8863
Mean Motion15.08856773
Decay Rate-0.00060531
L11 52864U 22062AL 22270.25001157 -.00060531 00000+0 -38155-2 0 9991
L22 52864 53.2158 277.9491 0001967 44.4748 328.8863 15.08856773 16289

Live tracking and technical data element details for STARLINK-4267 (NORAD 52864). STARLINK-4267 can be tracked NOW for your location showing map with azimuth and elevation plus other details from your city location.

Track the satellite on the map from your city or location and see movement details for azimuth, elevation, latitude, longitude, range, height, and movement on the map or in text.







IsCatalogInMostPopularTable: catalog: 52864, numindb: 13
Update: records affected: 1



GetName: 52864 STARLINK-4267

Hit Count: updated at: Thu, 06 Oct 2022 05:14:47 GMT